GRZLY41 ETNW-ETNW

Flight info

Callsign GRZLY41
Flight time 0h 19m
Altitude 2000
Route WUN DCT 523401N0091927E DCT 524743N0085851E DCT 525647N0084911E DCT 530623N0084417E DCT 532115N0083541E DCT 533255N0083536E DCT 534144N0082905E DCT NDO DCT 533255N0083536E DCT 532115N0083541E DCT 530642N0082730E DCT 525341N0082601E DCT 524752N0083841E DCT 524055N0084837E DCT 523757N0091306E DCT 523401N0091927E DCT WUN
Aircraft C30J/M-SBDE2FGHIJ4J5M1RTUWXYZ/B1D1L

Departure

Time 2026-04-17 20:02
Airport Wunstorf Air Base (ETNW)

Arrival

Time 2026-04-17 20:22
Airport Wunstorf Air Base (ETNW)
Time Latitude Longitude Altitude Speed Heading
2026-04-17 20:00 52.91471 9.09844 2204 ft 265 kts 135°
2026-04-17 20:00 52.90151 9.11957 2195 ft 262 kts 137°
2026-04-17 20:00 52.88805 9.13899 2151 ft 251 kts 139°
2026-04-17 20:01 52.87491 9.15726 2071 ft 243 kts 139°
2026-04-17 20:01 52.86244 9.17575 1948 ft 239 kts 139°
2026-04-17 20:01 52.84967 9.19301 1881 ft 235 kts 142°
2026-04-17 20:01 52.83654 9.20919 1724 ft 237 kts 143°
2026-04-17 20:02 52.82315 9.22496 1635 ft 236 kts 144°
2026-04-17 20:02 52.80977 9.24018 1640 ft 232 kts 145°
2026-04-17 20:02 52.79631 9.25346 1610 ft 213 kts 155°
2026-04-17 20:02 52.78265 9.25806 1384 ft 195 kts 176°
2026-04-17 20:03 52.76956 9.25522 1244 ft 184 kts 185°
2026-04-17 20:03 52.75754 9.25137 1236 ft 168 kts 187°
2026-04-17 20:03 52.74585 9.24705 1303 ft 182 kts 187°
2026-04-17 20:03 52.73302 9.24244 1418 ft 192 kts 188°
2026-04-17 20:04 52.72015 9.23745 1270 ft 188 kts 189°
2026-04-17 20:04 52.70794 9.23220 1179 ft 178 kts 189°
2026-04-17 20:04 52.69601 9.22731 1201 ft 179 kts 190°
2026-04-17 20:04 52.68373 9.22201 1227 ft 185 kts 189°
2026-04-17 20:05 52.67129 9.21679 1282 ft 177 kts 189°
2026-04-17 20:05 52.65986 9.21386 1263 ft 162 kts 179°
2026-04-17 20:05 52.64791 9.21426 1292 ft 178 kts 170°
2026-04-17 20:05 52.63584 9.21765 1269 ft 174 kts 165°
2026-04-17 20:06 52.62496 9.22472 1244 ft 168 kts 141°
2026-04-17 20:06 52.61636 9.23781 1237 ft 169 kts 135°
2026-04-17 20:06 52.60782 9.25090 1220 ft 170 kts 138°
2026-04-17 20:06 52.59911 9.26403 1218 ft 169 kts 136°
2026-04-17 20:07 52.59086 9.27789 1218 ft 169 kts 131°
2026-04-17 20:07 52.58306 9.29247 1210 ft 170 kts 130°
2026-04-17 20:07 52.57534 9.30728 1197 ft 171 kts 130°
2026-04-17 20:07 52.56769 9.32227 1181 ft 171 kts 129°
2026-04-17 20:08 52.56017 9.33741 1174 ft 171 kts 132°
2026-04-17 20:08 52.55106 9.35009 1174 ft 172 kts 147°
2026-04-17 20:08 52.54005 9.35737 1170 ft 169 kts 165°
2026-04-17 20:08 52.52863 9.35918 1152 ft 162 kts 174°
2026-04-17 20:09 52.51769 9.35966 1137 ft 152 kts 174°
2026-04-17 20:09 52.50704 9.35991 1169 ft 154 kts 175°
2026-04-17 20:09 52.49609 9.35990 1196 ft 159 kts 176°
2026-04-17 20:09 52.48516 9.35969 1191 ft 155 kts 177°
2026-04-17 20:10 52.47436 9.35957 1186 ft 155 kts 176°
2026-04-17 20:10 52.46379 9.36150 1133 ft 152 kts 153°
2026-04-17 20:10 52.45651 9.37291 933 ft 150 kts 118°
2026-04-17 20:10 52.45409 9.38969 638 ft 157 kts 89°
2026-04-17 20:11 52.45569 9.40754 324 ft 159 kts 83°
2026-04-17 20:11 52.45740 9.42519 252 ft 156 kts 83°
2026-04-17 20:11 52.45898 9.44318 255 ft 160 kts 84°
2026-04-17 20:11 52.46047 9.46070 445 ft 148 kts 84°
2026-04-17 20:12 52.46165 9.47798 769 ft 161 kts 86°
2026-04-17 20:12 52.46296 9.49667 1119 ft 164 kts 85°
2026-04-17 20:12 52.46504 9.51485 1215 ft 168 kts 70°
2026-04-17 20:12 52.47316 9.52945 1274 ft 185 kts 33°
2026-04-17 20:13 52.48607 9.53330 1316 ft 197 kts 352°
2026-04-17 20:13 52.49731 9.52082 1317 ft 201 kts 303°
2026-04-17 20:13 52.50161 9.49939 1313 ft 197 kts 279°
2026-04-17 20:13 52.50211 9.47785 1336 ft 188 kts 259°
2026-04-17 20:14 52.49989 9.45706 1343 ft 182 kts 256°
2026-04-17 20:14 52.49777 9.43662 1313 ft 181 kts 258°
2026-04-17 20:14 52.49583 9.41613 1311 ft 183 kts 257°
2026-04-17 20:14 52.49362 9.39577 1289 ft 180 kts 257°
2026-04-17 20:15 52.49062 9.37608 1310 ft 175 kts 229°
2026-04-17 20:15 52.48055 9.36775 976 ft 156 kts 177°
2026-04-17 20:15 52.47070 9.36898 814 ft 135 kts 170°
2026-04-17 20:15 52.46184 9.37276 712 ft 130 kts 143°
2026-04-17 20:16 52.45654 9.38423 584 ft 128 kts 112°
2026-04-17 20:16 52.45528 9.39862 400 ft 132 kts 91°
2026-04-17 20:16 52.45612 9.41330 198 ft 122 kts 84°
2026-04-17 20:16 52.45718 9.42620 206 ft 120 kts 82°
2026-04-17 20:17 52.45886 9.44226 556 ft 167 kts 82°
2026-04-17 20:17 52.46098 9.46284 919 ft 188 kts 76°
2026-04-17 20:17 52.46905 9.47863 1195 ft 187 kts 29°
2026-04-17 20:17 52.48222 9.47967 1192 ft 200 kts 342°
2026-04-17 20:18 52.49235 9.46460 1169 ft 203 kts 292°
2026-04-17 20:18 52.49307 9.44251 1111 ft 192 kts 259°
2026-04-17 20:18 52.49106 9.42066 1120 ft 199 kts 259°
2026-04-17 20:18 52.48897 9.39768 1127 ft 202 kts 258°
2026-04-17 20:19 52.48683 9.37546 1135 ft 193 kts 258°
2026-04-17 20:19 52.48475 9.35404 1159 ft 191 kts 259°
2026-04-17 20:19 52.48241 9.33240 1233 ft 192 kts 246°
2026-04-17 20:19 52.47357 9.31788 1180 ft 182 kts 194°
2026-04-17 20:20 52.46193 9.31761 1049 ft 154 kts 156°
2026-04-17 20:20 52.45416 9.32785 1045 ft 145 kts 127°
2026-04-17 20:20 52.44996 9.34165 836 ft 133 kts 104°
2026-04-17 20:20 52.44971 9.35740 842 ft 137 kts 84°
2026-04-17 20:21 52.45138 9.37225 732 ft 129 kts 81°
2026-04-17 20:21 52.45306 9.38649 572 ft 125 kts 82°
2026-04-17 20:21 52.45454 9.39947 396 ft 109 kts 82°
2026-04-17 20:21 52.45591 9.41216 243 ft 115 kts 82°
2026-04-17 20:22 52.45699 9.42403 176 ft 89 kts 83°
2026-04-17 20:22 52.45777 9.43207 183 ft 44 kts 79°
2026-04-17 20:22 52.45817 9.43686 175 ft 21 kts 80°
2026-04-17 20:22 52.45880 9.43782 172 ft 11 kts 332°
2026-04-17 20:23 52.45965 9.43675 174 ft 12 kts 318°
2026-04-17 20:23 52.46003 9.43615 176 ft 0 kts 303°
2026-04-17 20:23 52.46008 9.43581 176 ft 9 kts 279°
2026-04-17 20:23 52.45987 9.43389 175 ft 42 kts 255°
2026-04-17 20:24 52.45915 9.43034 181 ft 18 kts 277°
2026-04-17 20:24 52.45946 9.42889 173 ft 14 kts 271°
2026-04-17 20:24 52.45933 9.42739 173 ft 14 kts 261°
2026-04-17 20:24 52.45935 9.42660 173 ft 7 kts 291°
2026-04-17 20:25 52.45957 9.42621 173 ft 4 kts 287°
2026-04-17 20:25 52.45954 9.42550 173 ft 6 kts 262°
2026-04-17 20:25 52.45952 9.42534 173 ft 0 kts 262°